"Pseudo-MPEC" for P12oO5E

Created 2026 Aug 7 12:35:07 UT using Find_Orb

Click here for an explanation of pseudo-MPECs

 
 Astrometry: 
     P12oO5E 0C2026 07 20.39260920 17 53.022-20 28 34.68   ~86No 22.52GVNEOCPF51
     P12oO5E 0C2026 07 20.39325920 17 53.015-20 28 35.22   ~86No 22.35GVNEOCPF51
     P12oO5E 0C2026 07 20.40405820 17 52.859-20 28 37.59   ~86No 22.13GVNEOCPF51
     P12oO5E 0C2026 07 20.40470320 17 52.835-20 28 37.59   ~86No 21.63GVNEOCPF51
     P12oO5E 0C2026 07 20.41551320 17 52.719-20 28 40.00   ~86No 22.82GVNEOCPF51
     P12oO5E 0C2026 07 20.41616220 17 52.678-20 28 40.25   ~86No 22.30GVNEOCPF51
     P12oO5E 0C2026 07 20.42712220 17 52.518-20 28 42.16   ~86No 21.93GVNEOCPF51
     P12oO5E 0C2026 07 20.42777420 17 52.507-20 28 42.14   ~86No 21.60GVNEOCPF51
     P12oO5E*0C2026 08 04.37985820 22 32.867-21 42 00.96   ~84Co 21.31wXNEOCPF51
     P12oO5E 0C2026 08 04.39133620 22 32.790-21 42 07.14   ~84Co 21.19wXNEOCPF51
     P12oO5E 0C2026 08 04.40284620 22 32.716-21 42 12.95   ~84Co 21.39wXNEOCPF51
     P12oO5E 0C2026 08 04.41435320 22 32.636-21 42 18.74   ~84Co 20.91wXNEOCPF51
     P12oO5E 0C2026 08 04.54921420 22 32.411-21 43 11.17   ~84H5 21.11GVNEOCPF52
     P12oO5E 0C2026 08 04.54984720 22 32.426-21 43 11.34   ~84H5 20.82GVNEOCPF52
     P12oO5E 0B2026 08 04.87788720 22 54.686-21 44 45.43   ~8505 20.6 GWNEOCPM21
     P12oO5E 0B2026 08 04.91023320 22 54.615-21 45 03.72   ~8505       WNEOCPM21
     P12oO5E 3C2026 08 06.47341420 24 06.325-22 00 33.52   ~86EK 20.11GVNEOCPT14
     P12oO5E 3C2026 08 06.47438620 24 06.320-22 00 33.86   ~86EK 20.04GVNEOCPT14
     P12oO5E 3C2026 08 06.47535820 24 06.329-22 00 34.24   ~86EK 20.13GVNEOCPT14
     P12oO5E KB2026 08 06.98179820 24 38.38 -22 06 16.6    ~870Z 19.8 GXNEOCPI93
     P12oO5E KB2026 08 06.99118720 24 38.51 -22 06 22.4    ~870Z 19.8 GXNEOCPI93
     P12oO5E 1C2026 08 06.99290720 24 40.72 -22 06 03.2    ~871K 20.2 GVNEOCPZ31
     P12oO5E 1C2026 08 06.99607920 24 40.74 -22 06 05.4    ~871K 20.2 GVNEOCPZ31
     P12oO5E 1C2026 08 06.99918120 24 40.76 -22 06 07.4    ~871K 20.2 GVNEOCPZ31
     P12oO5E KB2026 08 07.00057820 24 38.68 -22 06 27.6    ~870Z 20.5 GXNEOCPI93
     P12oO5E 1C2026 08 07.00229420 24 40.80 -22 06 09.5    ~871K 20.2 GVNEOCPZ31

Station data:
(F51) Pan-STARRS 1, Haleakala  (N20.707234 W156.255910)  US/Hawaii.
   Observers J. Herman, T. Lowe, P. Minguez, A. Schultz, I. Smith. Measurers
   K. Chambers, T. de Boer, J. Fairlamb, H. Gao, M. Huber, C.-C. Lin, E.
   Magnier, Y. Ramanjooloo, R. Wainscoat, R. Weryk. 1.8-m Ritchey-Chrétien +
   CCD.
(F52) Pan-STARRS 2, Haleakala  (N20.707382 W156.255910)  US/Hawaii.
   Observers J. Herman, T. Lowe, P. Minguez, A. Schultz, I. Smith. Measurers
   K. Chambers, T. de Boer, J. Fairlamb, H. Gao, M. Huber, C.-C. Lin, E.
   Magnier, Y. Ramanjooloo, R. Wainscoat, R. Weryk. 1.8-m Ritchey-Chrétien +
   CCD.
(I93) St Pardon de Conques  (N44.558670 W0.202960)  France.  Observers F.
   Losse, W. D'Anna. Measurer F. Losse. 0.40-m f/3.7 reflector + CCD.
(M21) Schiaparelli Southern Observatory, Hakos  (S23.236549 E16.361440)
   Namibia.  Observers A. Aletti, F. Bellini, L. Buzzi, G. Galli. Measurer L.
   Buzzi. 0.36-m f/8.4 reflector + CCD.
(T14) Mauna Kea-UH/Tholen NEO Follow-Up (CFHT)  (N19.825252 W155.468876)
   US/Hawaii.  Observer R. Weryk. 3.6-m Canada-France-Hawaii Telescope.
(Z31) Tenerife Observatory-LCO A, Tenerife  (N28.300419 W16.511650)  Canary
   Islands (Spain).  Observer J. D. Armstrong. Measurer M. Micheli. 1.0-m
   reflector + CCD.

Orbital elements:  P12oO5E
   Perihelion 2026 Sep 28.624634 +/- 0.00969 TT = 14:59:28.3 (JD 2461312.124634)
Epoch 2026 Aug  7.0 TT = JDT 2461259.5   Earth MOID: 0.0040   Ma: 0.0242
M 329.378968606 +/- 0.034           (J2000 ecliptic)             AutoNEOCP
n   0.581876382 +/- 0.00055         Peri.  273.737973 +/- 0.007
a   1.420961231 +/- 0.000896        Node    98.941079 +/- 0.0051
e   0.33241156 +/- 0.000463         Incl.    0.292890 +/- 0.00039
P   1.694/618.676d         H 25.70  G  0.15   U  7.7
q 0.948617280 +/- 6.14e-5    Q 1.893305182 +/- 0.00185
From 26 observations 2026 July 20-Aug. 7; mean residual 0".16
Residuals in arcseconds: 
260720 F51  .04+  .40+    260804 F51  .06-  .03-    260806 T14  .02-  .11+    
260720 F51  .07+  .00     260804 F51  .02+  .04+    260806 I93  .50+  .31-    
260720 F51  .01-  .08-    260804 F51  .06+  .07-    260806 I93  .12+  .44-    
260720 F51  .22-  .06+    260804 F52  .02-  .04-    260806 Z31  .02+  .10+    
260720 F51  .34+  .15-    260804 F52  .10+  .02-    260806 Z31  .04-  .01+    
260720 F51  .10-  .27-    260804 M21  .34-  .04-    260806 Z31  .08-  .05+    
260720 F51  .05-  .04-    260804 M21  .06+  .13-    260807 I93  .27+  .08-    
260720 F51  .07-  .10+    260806 T14  .06+  .09-    260807 Z31  .16+  .02-    
260804 F51  .01-  .09+    260806 T14  .08-  .03+    

Ephemerides (geocentric):
Date (UTC) HH   RA             Dec           delta  r     elong  mag " sig PA
---- --------  ------------   ------------  ------ ------ -----  --- --------
2026 08 07 13  20 25 13.083   -22 10 09.55  .06487 1.0777 168.3 20.6 .143  28
2026 08 07 14  20 25 15.768   -22 10 36.65  .06470 1.0775 168.2 20.6 .144  28
2026 08 07 15  20 25 18.471   -22 11 03.86  .06453 1.0773 168.2 20.6 .145  28
2026 08 07 16  20 25 21.191   -22 11 31.20  .06436 1.0772 168.2 20.6 .146  28
2026 08 07 17  20 25 23.928   -22 11 58.65  .06419 1.0770 168.1 20.6 .147  28
2026 08 07 18  20 25 26.684   -22 12 26.22  .06402 1.0768 168.1 20.6 .148  28
2026 08 07 19  20 25 29.457   -22 12 53.92  .06385 1.0766 168.1 20.6 .149  28
2026 08 07 20  20 25 32.249   -22 13 21.74  .06368 1.0764 168.0 20.6 .150  28
2026 08 07 21  20 25 35.059   -22 13 49.68  .06351 1.0763 168.0 20.6 .151  28
2026 08 07 22  20 25 37.887   -22 14 17.75  .06334 1.0761 168.0 20.6 .152  28
2026 08 07 23  20 25 40.734   -22 14 45.94  .06317 1.0759 167.9 20.6 .152  27
2026 08 08 00  20 25 43.600   -22 15 14.26  .06299 1.0757 167.9 20.6 .153  27
2026 08 08 01  20 25 46.484   -22 15 42.71  .06282 1.0755 167.9 20.5 .154  27
2026 08 08 02  20 25 49.388   -22 16 11.28  .06265 1.0754 167.8 20.5 .155  27
2026 08 08 03  20 25 52.310   -22 16 39.99  .06248 1.0752 167.8 20.5 .156  27
2026 08 08 04  20 25 55.252   -22 17 08.82  .06231 1.0750 167.8 20.5 .157  27
2026 08 08 05  20 25 58.214   -22 17 37.78  .06214 1.0748 167.7 20.5 .158  27
2026 08 08 06  20 26 01.195   -22 18 06.88  .06197 1.0746 167.7 20.5 .159  27
2026 08 08 07  20 26 04.196   -22 18 36.11  .06180 1.0745 167.7 20.5 .160  27
2026 08 08 08  20 26 07.217   -22 19 05.47  .06163 1.0743 167.7 20.5 .161  27
2026 08 08 09  20 26 10.258   -22 19 34.97  .06146 1.0741 167.6 20.5 .162  27
2026 08 08 10  20 26 13.319   -22 20 04.60  .06129 1.0739 167.6 20.5 .163  27
2026 08 08 11  20 26 16.401   -22 20 34.37  .06112 1.0737 167.6 20.5 .164  27
2026 08 08 12  20 26 19.504   -22 21 04.28  .06095 1.0736 167.5 20.5 .165  27
2026 08 08 13  20 26 22.627   -22 21 34.33  .06078 1.0734 167.5 20.5 .166  27
2026 08 08 14  20 26 25.772   -22 22 04.51  .06061 1.0732 167.5 20.5 .167  27
2026 08 08 15  20 26 28.937   -22 22 34.84  .06045 1.0730 167.4 20.5 .168  27
2026 08 08 16  20 26 32.124   -22 23 05.31  .06028 1.0728 167.4 20.5 .169  27
2026 08 08 17  20 26 35.333   -22 23 35.92  .06011 1.0727 167.4 20.5 .170  27
2026 08 08 18  20 26 38.563   -22 24 06.68  .05994 1.0725 167.3 20.5 .172  26
2026 08 08 19  20 26 41.815   -22 24 37.58  .05977 1.0723 167.3 20.5 .173  26
2026 08 08 20  20 26 45.090   -22 25 08.63  .05960 1.0721 167.3 20.5 .174  26
2026 08 08 21  20 26 48.387   -22 25 39.82  .05943 1.0720 167.2 20.4 .175  26
2026 08 08 22  20 26 51.706   -22 26 11.17  .05926 1.0718 167.2 20.4 .176  26
2026 08 08 23  20 26 55.048   -22 26 42.66  .05909 1.0716 167.2 20.4 .177  26
2026 08 09 00  20 26 58.413   -22 27 14.30  .05892 1.0714 167.1 20.4 .178  26
2026 08 09 01  20 27 01.801   -22 27 46.10  .05875 1.0712 167.1 20.4 .179  26
2026 08 09 02  20 27 05.212   -22 28 18.05  .05858 1.0711 167.1 20.4 .180  26
2026 08 09 03  20 27 08.647   -22 28 50.15  .05841 1.0709 167.1 20.4 .181  26
2026 08 09 04  20 27 12.105   -22 29 22.41  .05825 1.0707 167.0 20.4 .182  26
2026 08 09 05  20 27 15.587   -22 29 54.82  .05808 1.0705 167.0 20.4 .184  26
2026 08 09 06  20 27 19.094   -22 30 27.40  .05791 1.0703 167.0 20.4 .185  26
2026 08 09 07  20 27 22.625   -22 31 00.13  .05774 1.0702 166.9 20.4 .186  25
2026 08 09 08  20 27 26.180   -22 31 33.02  .05757 1.0700 166.9 20.4 .187  25
2026 08 09 09  20 27 29.760   -22 32 06.07  .05740 1.0698 166.9 20.4 .188  25
2026 08 09 10  20 27 33.366   -22 32 39.29  .05723 1.0696 166.8 20.4 .189  25
2026 08 09 11  20 27 36.996   -22 33 12.67  .05707 1.0695 166.8 20.4 .190  25
2026 08 09 12  20 27 40.652   -22 33 46.21  .05690 1.0693 166.8 20.4 .192  25